Regional Weather Roundup
Issued by NWS Austin/San Antonio, TX

Current Version | Previous Version | Text Only | Print | Product List | Glossary On
Versions: 1 2 3 4 5 6 7 8 9 10 11 12 13 14 15 16 17 18 19 20 21 22 23 24 25 26 27 28 29 30 31 32 33 34 35 36 37 38 39 40 41 42 43 44 45 46 47 48 49 50
000
ASUS44 KEWX 300901
RWREWX
SOUTH TEXAS REGIONAL WEATHER ROUNDUP
NATIONAL WEATHER SERVICE AUSTIN/SAN ANTONIO TX
400 AM CDT FRI SEP 30 2022

NOTE: "FAIR" INDICATED FEW OR NO CLOUDS BELOW 12,000 FEET WITH NO
SIGNIFICANT WEATHER AND/OR OBSTRUCTIONS TO VISIBILITY.

* - THESE STATIONS ARE NOT NWS OR FAA STATIONS...AND ARE NOT SUBJECT
    TO NWS AND FAA QUALITY CONTROL.

TXZ171-172-183>190-301000-
TEXAS HILL COUNTRY AND EDWARDS PLATEAU

CITY           SKY/WX    TMP DP  RH WIND       PRES   REMARKS
JUNCTION       NOT AVBL
*LLANO         PTCLDY    63  48  59 CALM      30.08S
BURNET         CLEAR     66  49  54 E5        30.11S
*HORSESHOE BAY CLEAR     68  49  50 SE6       30.08S
*LAGO VISTA      N/A     66  48  50 E9        30.09F
*KERRVILLE     CLEAR     57  48  72 CALM      30.08F
*FREDERICKSBRG CLEAR     56  48  73 CALM      30.09F
*ROCKSPRINGS   MOCLDY    66  48  52 W6        30.16S
*BOERNE        CLEAR     59  46  63 CALM      30.08S
*CASTROVILLE   CLEAR     66  48  52 NW5       30.06S
HONDO          CLEAR     61  46  57 N5        30.05S
*UVALDE        CLEAR     60  49  66 CALM      30.07F
DEL RIO        CLEAR     65  54  67 CALM      30.05F
*LAUGHLIN AFB  CLEAR     62  55  77 CALM      30.03F
*SPOFFORD      CLEAR     60  49  65 CALM      30.04F
CARRIZO SPRGS  CLEAR     68  50  52 W6        30.03S
*FAITH RANCH   CLEAR     63  50  63 CALM      30.06S
$$

TXZ173-191>194-202-209-217>225-228-301000-
CENTRAL AND SOUTH CENTRAL TEXAS

CITY           SKY/WX    TMP DP  RH WIND       PRES   REMARKS
GEORGETOWN     CLEAR     66  46  48 E7        30.11S
*TAYLOR        CLEAR     67  46  46 E10       30.09F
AUSTIN/BERGSTM CLEAR     64  51  62 NE5       30.07S
AUSTIN/MABRY   CLEAR     69  49  48 VRB6      30.09S
*PFLUGERVILLE  MOCLDY    63  48  59 E7        30.07F
SAN MARCOS     CLEAR    N/A N/A N/A N3          N/A
NEW BRAUNFELS  CLEAR     63  51  65 CALM      30.04F
*RANDOLPH AFB  CLEAR     63  52  67 NE3       30.03S
*SEGUIN        CLEAR     64  56  75 E6        30.03F
SAN ANTONIO    CLEAR     67  53  61 NE3       30.05S
STINSON FIELD  CLEAR     64  53  67 SE3       30.02F
*KELLY FIELD   CLEAR     63  51  64 CALM      30.02S
*PLEASANTON    CLEAR     62  54  74 CALM      30.04F
*KENEDY        CLEAR     64  58  81 E3        30.06S
*LA GRANGE     NOT AVBL
*GIDDINGS      CLEAR     63  45  52 E5        30.10F
*GONZALES      CLEAR     65  56  70 CALM      30.06S
$$

TXZ163>164-176>182-195>201-210>213-226-227-235-301000-
SOUTHEAST TEXAS

CITY           SKY/WX    TMP DP  RH WIND       PRES   REMARKS
COLLEGE STN    CLEAR     64  46  52 E3        30.09S
*BRYAN         CLEAR     60  44  56 CALM      30.12F
*CALDWELL      CLEAR     64  45  51 E3        30.11S
*CROCKETT      CLEAR     54  46  76 CALM      30.11S
*BRENHAM       CLEAR     64  46  51 CALM        N/A
HUNTSVILLE     CLEAR     57  46  66 CALM      30.09F
CONROE         CLEAR     51  47  86 NW3       30.09F
HOUSTON BUSH   CLEAR     59  46  62 N5        30.07F
HOUSTON HOBBY  CLEAR     66  44  45 NE5       30.06F
*HOUSTON SW AP NOT AVBL
PEARLAND       CLEAR     63  48  58 N3        30.08S
HOUSTON HOOKS  CLEAR     57  47  69 N3        30.08F
ELLINGTON FLD  CLEAR     61  46  59 NE7       30.06S
SUGAR LAND     CLEAR     65  46  50 E6        30.06F
*HOUSTON EXEC  CLEAR     63  46  55 CALM      30.08F
*CLEVELAND MUN NOT AVBL
*WHARTON       CLEAR     63  48  58 NE5       30.07F
*COLUMBUS      FAIR      58  50  75 CALM      30.10S
*EAGLE LAKE    CLEAR     58  52  79 MISG      30.08S
$$

TXZ214>216-236>238-301000-
THE UPPER TEXAS COAST

CITY           SKY/WX    TMP DP  RH WIND       PRES   REMARKS
*ORANGE        CLEAR     57  49  75 CALM      30.08F
PORT ARTHUR    CLEAR     56  48  74 N7        30.05F
GALVESTON      CLEAR     68  51  54 NE10      30.05F
ANGLETON       CLEAR     59  50  72 N6        30.05F
*BAY CITY      CLEAR     62  52  69 NE7       30.05F
PALACIOS       CLEAR     61  53  75 N7        30.04S
$$

TXZ229>234-239>247-301000-
TEXAS COASTAL BEND AND RIO GRANDE PLAINS

CITY           SKY/WX    TMP DP  RH WIND       PRES   REMARKS
VICTORIA       CLEAR     62  60  93 NE6       30.05S
*BEEVILLE      CLEAR     60  58  92 E5        30.03F
ROCKPORT       CLEAR     70  68  93 NW5       30.03S
*PORT ARANSAS  CLEAR    N/A N/A N/A CALM      30.04F
*PORT LAVACA   CLEAR     69  58  69 NE9       30.05S
*INGLESIDE     NOT AVBL
CORPUS CHRISTI PTCLDY    66  59  78 NW7       30.03S
CORPUS NAS     CLEAR     72  65  78 W6        30.02F
*ROBSTOWN      CLEAR     65  59  82 MISG      30.04S
ALICE          CLEAR     60  58  92 CALM      30.02F
KINGSVILLE NAS CLEAR     62  60  93 N5        30.02F
COTULLA        CLEAR     66  52  60 NW3       30.03S
LAREDO         CLEAR     70  56  61 CALM      30.03F
$$

TXZ248>255-301000-
DEEP SOUTH TEXAS

CITY           SKY/WX    TMP DP  RH WIND       PRES   REMARKS
BROWNSVILLE    CLEAR     66  62  87 CALM      30.01F
PORT ISABEL    CLEAR     66  63  90 W3        30.01F
HARLINGEN      CLEAR     65  63  93 W3        30.01F
*HEBBRONVILLE  CLEAR     65  56  71 W6        30.04F
MCALLEN        CLEAR     66  60  81 CALM      30.03F
*WESLACO       CLEAR     69  61  76 SW6       30.03
FALFURRIAS     CLEAR     59  58  94 NE3       30.01F
EDINBURG       CLEAR     64  60  89 CALM      30.03F
*ZAPATA        CLEAR     68  60  76 CALM      30.04
$$

TXZ213>215-236>238-242>244-246-247-251-254-255-301000-
CMAN STATIONS

STATION/POSITION TIME  TEMP    WIND        PRES    WAVE
                       AIR SEA DIR/SP/G            HT/PER
                 (UTC) (F)     (DEG/KT/KT) (MB)    (FT/S)
SEA RIM ST PARK  0800   63     360/  3/  4 1018.1
NORTH JETTY/GLS  0818   70 77   70/ 18/ 21 1016.2
EAGLE POINT      0824   70 76   70/ 15/ 18 1017.1
MORGANS POINT    0824   65 81   20/  6/ 10 1017.3
MISSION/ARANSAS  0800   75      50/  6     1017.0
PORT O`CONNOR    0824   76 88   20/ 15/ 18 1016.5
PORT ARANSAS     0800   80     110/  3/  4   N/A
BAFFIN BAY       0824   75 81  210/  4/  5 1016.8
PORT ISABEL      0824   69 82  260/  3/  3 1015.8
$$



USA.gov is the U.S. government's official web portal to all federal, state and local government web resources and services.